AirNav   Bose ProFlight Aviation Headset
 
 1194 users online  

SC00 Triple Tree Airport
Woodruff, South Carolina, USA

GOING TO WOODRUFF?


FAA INFORMATION EFFECTIVE 08 NOVEMBER 2018

Location

FAA Identifier: SC00
Lat/Long: 34-40-28.0000N / 082-00-05.0000W
34-40.466667N / 082-00.083333W
34.6744444 / -82.0013889
(estimated)
Elevation: 680 ft. / 207 m (estimated)
Variation: 05W (1995)
From city: 6 miles S of WOODRUFF, SC
Time zone: UTC -5 (UTC -4 during Daylight Saving Time)
Zip code: 29388

Airport Operations

Airport use: Private use. Permission required prior to landing
Activation date: 06/1999
Control tower: no
ARTCC: ATLANTA CENTER
FSS: ANDERSON FLIGHT SERVICE STATION
Attendance: UNATNDD
Wind indicator: yes
Segmented circle: no

Airport Communications

WX AWOS-3 at LUX (10 nm S): 123.975 (864-682-3639)
WX AWOS-3 at SPA (15 nm N): 133.925 (864-587-2529)
WX ASOS at GSP (17 nm NW): 134.25 (864-879-0614)
WX AWOS-3 at GYH (19 nm W): 127.325 (864-277-5674)

Nearby radio navigation aids

VOR radial/distance  VOR name  Freq  Var
SPAr192/21.9SPARTANBURG VORTAC115.7002W
GRDr018/26.5GREENWOOD VORTAC115.5001W

 
NDB name  Hdg/Dist  Freq  Var  ID
FAIRMONT188/13.624805WFRT ..-. .-. -
UNION COUNTY274/17.732606WUOT ..- --- -
CORONACA017/25.623907WGIW --. .. .--
ENOREE327/28.327807WEOE . --- .
LAKE KEOWEE107/35.640804WLQK .-.. --.- -.-
FIRST RIVER216/39.941706WSLP ... .-.. .--.

Airport Services

Fuel available: UL94

Runway Information

Runway 3/21

Dimensions: 7000 x 400 ft. / 2134 x 122 m
Surface: turf
RUNWAY 3  RUNWAY 21
Traffic pattern: leftleft

Airport Ownership and Management from official FAA records

Ownership: Privately-owned
Owner: TRIPLE TREE AERODROME, INC.
330 MARY HANNA RD
WOODRUFF, SC 29388
Phone (864) 213-1754
Manager: PAT DERRICK
50 ROCKY CREEK RD. #12
GREENVILLE, SC 29615
Phone (864) 213-1754
OTHER CONTACT PAT DERRICK 864-270-1166

Airport Operational Statistics

Aircraft based on the field: 11
Single engine airplanes: 8
Multi engine airplanes: 1
Gliders airplanes: 1
Ultralights: 1
    

Additional Remarks

282 FT ANTENNA 1.5 MILES NW OF ARPT.

Instrument Procedures

There are no published instrument procedures at SC00.

Some nearby airports with instrument procedures:

KLUX - Laurens County Airport (10 nm S)
KSPA - Spartanburg Downtown Memorial Airport (15 nm N)
KGSP - Greenville Spartanburg International Airport (17 nm NW)
35A - Union County Airport, Troy Shelton Field (18 nm E)
KGYH - Donaldson Field Airport (19 nm W)
 
Loc | Ops | Rwys | IFR | FBO | Links
Com | Nav | Svcs | Stats | Notes


 
Area around SC00 (Triple Tree Airport)
 
Road maps at: MapQuest Bing Google
 
Aerial photo
WARNING: Photo may not be current or correct
Aerial photo of SC00 (Triple Tree Airport)
Photo by Dick Hitt
Photo taken 22-Jul-2012
looking southwest.

Do you have a better or more recent aerial photo of Triple Tree Airport that you would like to share? If so, please send us your photo.

 
Sectional chart

 
Airport distance calculator
Flying to Triple Tree Airport? Find the distance to fly.

From to SC00

Sunrise and sunset
Times for 14-Nov-2018
 Local
(UTC-5)
 Zulu
(UTC)
Morning civil twilight06:3511:35
Sunrise07:0212:02
Sunset17:2322:23
Evening civil twilight17:5022:50

Current date and time
Zulu (UTC)  14-Nov-2018 23:00:35
Local (UTC-5)  14-Nov-2018 18:00:35
 
METAR
KLUX 
10nm S 
142255Z AUTO 03004KT 10SM -RA OVC009 06/05 A3032 RMK AO2
KGSP 
17nm NW 
142253Z 03010KT 10SM -RA OVC034 06/03 A3033 RMK AO2 RAE08B37 SLP273 P0000 T00610033
KGYH 
19nm W 
142247Z 05010G15KT 10SM -RA OVC032 07/04 A3031
KGMU 
20nm NW 
142253Z 05012G19KT 10SM -RA OVC032 07/04 A3032 RMK AO2 RAE12B33 SLP270 P0000 T00670039
TAF
KGSP 
17nm NW 
142008Z 1420/1518 05010KT P6SM VCSH OVC035 FM142200 05010KT P6SM -RA OVC025 FM142300 04011KT P6SM -RA OVC019 TEMPO 1423/1501 4SM -RA BR OVC008 FM150100 04013G20KT 4SM -RA BR OVC008 FM150300 04014G22KT 2SM +RA BR OVC008 FM151300 03012KT 5SM -RA BR OVC007 FM151600 02008KT 4SM BR OVC006
KGMU 
20nm NW 
142011Z 1420/1518 05011KT P6SM VCSH OVC035 FM142200 05010KT P6SM -RA OVC025 FM142300 04011KT P6SM -RA OVC019 TEMPO 1423/1501 4SM -RA BR OVC008 FM150100 05014G21KT 4SM -RA BR OVC008 FM150300 05016G23KT 2SM +RA BR OVC008 FM151300 04012KT 5SM -RA BR OVC007 FM151600 03008KT 6SM BR OVC006
NOTAMs
Click for the latest NOTAMs
NOTAMs are issued by the DoD/FAA and will open in a separate window not controlled by AirNav.

 

 
 

Would you like to see your business listed on this page?

 If your business provides an interesting product or service to pilots, flight crews, aircraft, or users of the Triple Tree Airport, you should consider listing it here.  To start the listing process, click on the button below
 
Add a business
 

Other Pages about Triple Tree Airport

www.tripletreeaerodrome.com
 
Update a link
 
Copyright © AirNav, LLC. All rights reserved. Privacy Policy  Contact